SUD014 ZULS-ZGGG

Flight info

Callsign SUD014
Flight time N/A
Altitude 37100
Route LXA W500 DM W9 CZH B213 CTU W237 IDBOR B330 KWE W181 DUDIT A599 GYA GYA8
Aircraft A20N/M-SDE2E3FGHIRWXY/LB1

Departure

Time 2026-04-28 10:35
Airport Lhasa Gonggar International Airport (ZULS)

Arrival

Time N/A
Airport Guangzhou Baiyun International Airport (ZGGG)
Time Latitude Longitude Altitude Speed Heading
2026-04-28 10:04 29.29340 90.89335 11455 ft 0 kts 142°
2026-04-28 10:21 29.29353 90.89323 11440 ft 4 kts 136°
2026-04-28 10:22 29.29370 90.89300 11443 ft 4 kts 112°
2026-04-28 10:22 29.29373 90.89278 11444 ft 4 kts 38°
2026-04-28 10:22 29.29365 90.89272 11449 ft 1 kts 18°
2026-04-28 10:25 29.29395 90.89284 11441 ft 11 kts 18°
2026-04-28 10:25 29.29502 90.89327 11443 ft 15 kts 34°
2026-04-28 10:25 29.29516 90.89389 11455 ft 10 kts 88°
2026-04-28 10:26 29.29518 90.89492 11455 ft 16 kts 89°
2026-04-28 10:26 29.29519 90.89642 11455 ft 21 kts 88°
2026-04-28 10:26 29.29523 90.89820 11447 ft 22 kts 89°
2026-04-28 10:26 29.29525 90.89984 11455 ft 20 kts 89°
2026-04-28 10:27 29.29527 90.90133 11454 ft 17 kts 89°
2026-04-28 10:27 29.29529 90.90261 11454 ft 16 kts 89°
2026-04-28 10:27 29.29532 90.90378 11454 ft 14 kts 89°
2026-04-28 10:27 29.29532 90.90489 11453 ft 14 kts 89°
2026-04-28 10:28 29.29533 90.90601 11456 ft 14 kts 89°
2026-04-28 10:28 29.29536 90.90721 11448 ft 19 kts 88°
2026-04-28 10:28 29.29539 90.90902 11453 ft 27 kts 89°
2026-04-28 10:29 29.29546 90.91381 11446 ft 29 kts 89°
2026-04-28 10:29 29.29549 90.91602 11440 ft 27 kts 89°
2026-04-28 10:29 29.29553 90.91804 11428 ft 24 kts 89°
2026-04-28 10:29 29.29555 90.91989 11428 ft 22 kts 87°
2026-04-28 10:30 29.29558 90.92154 11434 ft 20 kts 89°
2026-04-28 10:30 29.29559 90.92301 11434 ft 18 kts 89°
2026-04-28 10:30 29.29561 90.92434 11434 ft 16 kts 86°
2026-04-28 10:30 29.29564 90.92558 11425 ft 16 kts 88°
2026-04-28 10:31 29.29565 90.92684 11433 ft 16 kts 89°
2026-04-28 10:31 29.29567 90.92811 11433 ft 17 kts 88°
2026-04-28 10:31 29.29570 90.92962 11430 ft 21 kts 89°
2026-04-28 10:31 29.29573 90.93141 11426 ft 24 kts 89°
2026-04-28 10:32 29.29606 90.93267 11423 ft 8 kts 11°
2026-04-28 10:32 29.29658 90.93270 11425 ft 8 kts 360°
2026-04-28 10:32 29.29708 90.93269 11421 ft 6 kts 360°
2026-04-28 10:32 29.29748 90.93269 11430 ft 6 kts 359°
2026-04-28 10:33 29.29826 90.93253 11419 ft 13 kts 313°
2026-04-28 10:33 29.29838 90.93188 11425 ft 0 kts 269°
2026-04-28 10:34 29.29837 90.93121 11419 ft 30 kts 269°
2026-04-28 10:34 29.29830 90.92690 11432 ft 78 kts 269°
2026-04-28 10:34 29.29817 90.91868 11436 ft 131 kts 269°
2026-04-28 10:35 29.29800 90.90644 11443 ft 178 kts 269°
2026-04-28 10:35 29.29795 90.89125 11689 ft 191 kts 270°
2026-04-28 10:35 29.29766 90.87652 12567 ft 183 kts 270°
2026-04-28 10:35 29.29713 90.86158 13126 ft 193 kts 273°
2026-04-28 10:36 29.29734 90.84613 13418 ft 194 kts 277°
2026-04-28 10:36 29.29898 90.83058 13606 ft 205 kts 284°
2026-04-28 10:36 29.30241 90.81369 13651 ft 229 kts 285°
2026-04-28 10:36 29.30626 90.79522 13847 ft 246 kts 283°
2026-04-28 10:37 29.30975 90.77587 14181 ft 258 kts 288°
2026-04-28 10:37 29.31960 90.75834 14486 ft 274 kts 322°
2026-04-28 10:37 29.33687 90.74772 14816 ft 292 kts 337°
2026-04-28 10:37 29.35686 90.74157 15218 ft 305 kts 358°
2026-04-28 10:38 29.37725 90.74617 15955 ft 296 kts 30°
2026-04-28 10:38 29.39154 90.76193 16349 ft 286 kts 62°
2026-04-28 10:38 29.39697 90.78407 16657 ft 299 kts 91°
2026-04-28 10:38 29.39249 90.80785 16910 ft 315 kts 110°
2026-04-28 10:39 29.38331 90.83096 17164 ft 331 kts 118°
2026-04-28 10:39 29.37156 90.85431 17425 ft 346 kts 122°
2026-04-28 10:39 29.35862 90.87826 17686 ft 360 kts 122°
2026-04-28 10:39 29.34522 90.90312 17936 ft 373 kts 122°
2026-04-28 10:40 29.33161 90.92896 18139 ft 386 kts 121°
2026-04-28 10:40 29.31780 90.95584 18328 ft 397 kts 120°
2026-04-28 10:40 29.30548 90.98467 18516 ft 408 kts 111°
2026-04-28 10:40 29.29752 91.01630 18669 ft 419 kts 101°
2026-04-28 10:41 29.29331 91.04958 18873 ft 427 kts 96°
2026-04-28 10:41 29.29076 91.08320 19157 ft 431 kts 94°
2026-04-28 10:41 29.28903 91.11766 19437 ft 435 kts 93°
2026-04-28 10:41 29.28761 91.15242 19775 ft 438 kts 92°
2026-04-28 10:42 29.28620 91.18735 20106 ft 440 kts 92°
2026-04-28 10:42 29.28468 91.22244 20454 ft 443 kts 93°
2026-04-28 10:42 29.28300 91.25782 20783 ft 446 kts 93°
2026-04-28 10:42 29.28120 91.29342 21136 ft 449 kts 93°
2026-04-28 10:43 29.27930 91.32925 21495 ft 453 kts 93°
2026-04-28 10:43 29.27734 91.36536 21861 ft 456 kts 93°
2026-04-28 10:43 29.27535 91.40174 22240 ft 459 kts 93°
2026-04-28 10:43 29.27336 91.43779 22606 ft 462 kts 93°
2026-04-28 10:44 29.27132 91.47468 22979 ft 466 kts 93°
2026-04-28 10:44 29.26926 91.51186 23358 ft 469 kts 93°
2026-04-28 10:44 29.26719 91.54924 23736 ft 471 kts 93°
2026-04-28 10:44 29.26510 91.58676 24141 ft 473 kts 93°
2026-04-28 10:45 29.26298 91.62449 24494 ft 476 kts 93°
2026-04-28 10:45 29.26084 91.66250 24832 ft 480 kts 93°
2026-04-28 10:45 29.25868 91.70068 25188 ft 483 kts 93°
2026-04-28 10:45 29.25652 91.73871 25524 ft 486 kts 93°
2026-04-28 10:46 29.25451 91.77749 25866 ft 489 kts 92°
2026-04-28 10:46 29.25317 91.81650 26189 ft 492 kts 91°
2026-04-28 10:46 29.25221 91.85577 26521 ft 495 kts 91°
2026-04-28 10:46 29.25139 91.89543 26852 ft 498 kts 91°
2026-04-28 10:47 29.25057 91.93510 27223 ft 501 kts 90°
2026-04-28 10:47 29.24970 91.97521 27534 ft 504 kts 90°
2026-04-28 10:47 29.24876 92.01536 27925 ft 505 kts 91°
2026-04-28 10:47 29.24778 92.05497 28426 ft 504 kts 91°
2026-04-28 10:48 29.24674 92.09507 28874 ft 504 kts 91°
2026-04-28 10:48 29.24566 92.13508 29331 ft 504 kts 91°
2026-04-28 10:48 29.24458 92.17516 29733 ft 505 kts 91°
2026-04-28 10:48 29.24350 92.21549 30078 ft 506 kts 91°
2026-04-28 10:49 29.24245 92.25555 30492 ft 504 kts 90°
2026-04-28 10:49 29.24139 92.29566 30907 ft 504 kts 90°
2026-04-28 10:49 29.24032 92.33563 31339 ft 501 kts 90°
2026-04-28 10:49 29.23926 92.37500 31745 ft 501 kts 90°
2026-04-28 10:50 29.23817 92.41491 32018 ft 502 kts 90°
2026-04-28 10:50 29.23743 92.44192 32321 ft 501 kts 90°
2026-04-28 10:50 29.23595 92.49459 32854 ft 500 kts 90°
2026-04-28 10:50 29.23560 92.53432 33230 ft 499 kts 85°
2026-04-28 10:51 29.23966 92.57349 33570 ft 495 kts 75°
2026-04-28 10:51 29.24916 92.61110 33959 ft 488 kts 65°
2026-04-28 10:51 29.26331 92.64628 34190 ft 486 kts 59°
2026-04-28 10:51 29.27905 92.68035 34425 ft 485 kts 56°
2026-04-28 10:52 29.29575 92.71415 34536 ft 488 kts 55°
2026-04-28 10:52 29.31252 92.74729 34760 ft 488 kts 55°
2026-04-28 10:52 29.32953 92.78090 35122 ft 487 kts 55°
2026-04-28 10:52 29.34647 92.81457 35436 ft 486 kts 56°
2026-04-28 10:53 29.36331 92.84822 35635 ft 488 kts 56°
2026-04-28 10:53 29.38006 92.88192 35938 ft 487 kts 56°
2026-04-28 10:53 29.39679 92.91578 36274 ft 486 kts 56°
2026-04-28 10:53 29.41336 92.94955 36509 ft 487 kts 56°
2026-04-28 10:54 29.42986 92.98300 36652 ft 489 kts 56°
2026-04-28 10:54 29.44659 93.01689 36884 ft 489 kts 55°
2026-04-28 10:54 29.46333 93.05091 36989 ft 489 kts 56°
2026-04-28 10:55 29.49672 93.11893 36980 ft 490 kts 55°
2026-04-28 10:55 29.53020 93.18721 36979 ft 490 kts 55°
2026-04-28 10:56 29.56362 93.25534 36968 ft 489 kts 55°
2026-04-28 10:56 29.59660 93.32291 36954 ft 488 kts 56°
2026-04-28 10:57 29.62994 93.39105 36968 ft 489 kts 56°
2026-04-28 10:57 29.66303 93.45939 36972 ft 488 kts 55°
2026-04-28 10:58 29.69604 93.52760 36970 ft 489 kts 56°
2026-04-28 10:58 29.72899 93.59547 36981 ft 489 kts 55°
2026-04-28 10:59 29.76217 93.66377 36974 ft 488 kts 56°
2026-04-28 10:59 29.79522 93.73217 36992 ft 489 kts 55°
2026-04-28 11:00 29.82816 93.80070 36993 ft 489 kts 55°
2026-04-28 11:00 29.86096 93.86860 37009 ft 488 kts 56°
2026-04-28 11:01 29.89182 93.93818 37023 ft 492 kts 65°
2026-04-28 11:01 29.91066 94.01416 37042 ft 495 kts 72°
2026-04-28 11:02 29.92611 94.09140 37044 ft 495 kts 73°
2026-04-28 11:02 29.94086 94.16849 37038 ft 496 kts 73°
2026-04-28 11:03 29.95595 94.24610 37066 ft 496 kts 73°
2026-04-28 11:03 29.97113 94.32383 37050 ft 498 kts 73°
2026-04-28 11:04 29.98647 94.40182 37082 ft 499 kts 73°
2026-04-28 11:04 30.00153 94.47925 37058 ft 497 kts 73°
2026-04-28 11:05 30.01665 94.55694 37055 ft 498 kts 73°
2026-04-28 11:05 30.03185 94.63520 37028 ft 500 kts 73°
2026-04-28 11:06 30.04693 94.71324 37039 ft 497 kts 73°
2026-04-28 11:06 30.06179 94.79043 36995 ft 496 kts 73°
2026-04-28 11:07 30.07670 94.86828 36987 ft 496 kts 73°
2026-04-28 11:07 30.09152 94.94595 36994 ft 495 kts 73°
2026-04-28 11:08 30.10657 95.02354 36996 ft 496 kts 73°
2026-04-28 11:08 30.12193 95.10073 36998 ft 497 kts 72°
2026-04-28 11:09 30.13740 95.17832 37006 ft 495 kts 73°
2026-04-28 11:09 30.15278 95.25586 37009 ft 496 kts 73°
2026-04-28 11:10 30.16811 95.33356 37038 ft 496 kts 73°
2026-04-28 11:10 30.18338 95.41122 37057 ft 495 kts 73°
2026-04-28 11:11 30.19853 95.48862 37060 ft 497 kts 72°
2026-04-28 11:11 30.21375 95.56661 37070 ft 496 kts 73°
2026-04-28 11:12 30.22890 95.64447 37081 ft 498 kts 73°
2026-04-28 11:12 30.24398 95.72224 37082 ft 500 kts 73°
2026-04-28 11:13 30.25906 95.80065 37093 ft 500 kts 74°
2026-04-28 11:13 30.27410 95.87900 37098 ft 498 kts 73°
2026-04-28 11:14 30.28911 95.95706 37078 ft 497 kts 73°
2026-04-28 11:14 30.30423 96.03517 37085 ft 497 kts 73°
2026-04-28 11:15 30.31972 96.11245 37063 ft 496 kts 73°
2026-04-28 11:15 30.33533 96.18996 37080 ft 494 kts 73°
2026-04-28 11:16 30.35087 96.26759 37068 ft 496 kts 73°
2026-04-28 11:16 30.36626 96.34498 37031 ft 496 kts 73°
2026-04-28 11:17 30.38163 96.42280 37048 ft 496 kts 73°
2026-04-28 11:17 30.39705 96.50078 37050 ft 496 kts 73°
2026-04-28 11:18 30.40202 96.52599 37038 ft 495 kts 73°
2026-04-28 11:18 30.40614 96.54686 37047 ft 495 kts 73°
2026-04-28 11:19 30.41107 96.57191 37053 ft 495 kts 73°
2026-04-28 11:20 30.41151 96.57413 37055 ft 495 kts 73°
2026-04-28 11:20 30.42677 96.65180 37053 ft 495 kts 73°
2026-04-28 11:21 30.44186 96.72907 37074 ft 494 kts 74°
2026-04-28 11:21 30.45702 96.80673 37078 ft 495 kts 73°
2026-04-28 11:22 30.47216 96.88457 37084 ft 495 kts 74°
2026-04-28 11:22 30.48724 96.96251 37078 ft 496 kts 74°
2026-04-28 11:23 30.50221 97.04007 37086 ft 496 kts 74°
2026-04-28 11:23 30.51651 97.11809 37081 ft 496 kts 79°
2026-04-28 11:23 30.51862 97.15809 37075 ft 499 kts 90°
2026-04-28 11:24 30.51711 97.19830 37070 ft 500 kts 92°
2026-04-28 11:24 30.51131 97.27861 37070 ft 500 kts 94°
2026-04-28 11:25 30.50430 97.35833 37063 ft 499 kts 94°
2026-04-28 11:25 30.49729 97.43844 37054 ft 500 kts 94°
2026-04-28 11:26 30.49045 97.51865 37037 ft 500 kts 94°
2026-04-28 11:26 30.48363 97.59901 37055 ft 501 kts 93°
2026-04-28 11:27 30.47683 97.67930 37055 ft 501 kts 94°
2026-04-28 11:27 30.47000 97.75924 37042 ft 502 kts 94°
2026-04-28 11:28 30.46306 97.83972 37037 ft 502 kts 94°
2026-04-28 11:28 30.45605 97.92017 37037 ft 501 kts 94°
2026-04-28 11:29 30.44901 98.00057 37043 ft 501 kts 94°
2026-04-28 11:29 30.44196 98.08045 37038 ft 501 kts 94°
2026-04-28 11:30 30.43481 98.16078 37046 ft 502 kts 94°
2026-04-28 11:30 30.42487 98.28154 37042 ft 502 kts 94°
2026-04-28 11:31 30.41873 98.36218 37046 ft 502 kts 94°
2026-04-28 11:31 30.41258 98.44185 37050 ft 499 kts 94°
2026-04-28 11:32 30.40628 98.52192 37063 ft 499 kts 94°
2026-04-28 11:32 30.39992 98.60177 37066 ft 498 kts 94°
2026-04-28 11:33 30.39350 98.68175 37066 ft 499 kts 94°
2026-04-28 11:33 30.38708 98.76113 37069 ft 498 kts 95°
2026-04-28 11:34 30.38059 98.84073 37074 ft 496 kts 95°
2026-04-28 11:34 30.37406 98.92029 37068 ft 496 kts 95°
2026-04-28 11:35 30.36749 98.99975 37079 ft 496 kts 95°
2026-04-28 11:35 30.36092 99.07862 37079 ft 495 kts 95°
2026-04-28 11:36 30.35426 99.15805 37092 ft 497 kts 96°
2026-04-28 11:36 30.34750 99.23790 37096 ft 499 kts 96°
2026-04-28 11:37 30.34071 99.31778 37118 ft 499 kts 96°
2026-04-28 11:37 30.33390 99.39721 37128 ft 499 kts 96°
2026-04-28 11:38 30.32699 99.47703 37126 ft 499 kts 97°
2026-04-28 11:38 30.32003 99.55704 37131 ft 500 kts 97°
2026-04-28 11:39 30.31302 99.63705 37130 ft 500 kts 97°
2026-04-28 11:39 30.30595 99.71712 37125 ft 500 kts 97°
2026-04-28 11:40 30.29887 99.79670 37126 ft 500 kts 97°
2026-04-28 11:40 30.29171 99.87681 37109 ft 500 kts 97°
2026-04-28 11:41 30.28448 99.95685 37115 ft 500 kts 98°
2026-04-28 11:41 30.27757 100.03688 37098 ft 500 kts 97°
2026-04-28 11:42 30.27169 100.11631 37098 ft 500 kts 96°
2026-04-28 11:42 30.26587 100.19672 37088 ft 501 kts 96°
2026-04-28 11:43 30.25994 100.27675 37090 ft 500 kts 97°
2026-04-28 11:43 30.25388 100.35686 37081 ft 499 kts 97°
2026-04-28 11:44 30.24779 100.43633 37073 ft 499 kts 97°
2026-04-28 11:44 30.24160 100.51631 37073 ft 499 kts 97°
2026-04-28 11:45 30.23537 100.59632 37078 ft 499 kts 97°
2026-04-28 11:45 30.22911 100.67624 37079 ft 500 kts 97°
2026-04-28 11:46 30.22384 100.74280 37085 ft 500 kts 97°
2026-04-28 11:46 30.21638 100.83589 37082 ft 500 kts 97°
2026-04-28 11:47 30.20994 100.91585 37092 ft 500 kts 97°
2026-04-28 11:47 30.20346 100.99590 37093 ft 500 kts 97°
2026-04-28 11:48 30.19803 101.06233 37111 ft 500 kts 97°
2026-04-28 11:48 30.19144 101.14244 37107 ft 500 kts 97°
2026-04-28 11:49 30.18480 101.22240 37107 ft 500 kts 97°
2026-04-28 11:49 30.17814 101.30195 37105 ft 501 kts 98°
2026-04-28 11:50 30.17141 101.38211 37122 ft 501 kts 98°
2026-04-28 11:50 30.16463 101.46215 37134 ft 500 kts 98°
2026-04-28 11:51 30.15779 101.54220 37136 ft 501 kts 98°
2026-04-28 11:51 30.15099 101.62228 37157 ft 501 kts 98°
2026-04-28 11:52 30.14621 101.70199 37157 ft 502 kts 89°
2026-04-28 11:52 30.15036 101.74199 37155 ft 502 kts 78°
2026-04-28 11:52 30.16042 101.78058 37182 ft 501 kts 70°
2026-04-28 11:53 30.18625 101.85557 37183 ft 502 kts 67°
2026-04-28 11:53 30.21411 101.92952 37212 ft 502 kts 66°
2026-04-28 11:54 30.24170 102.00304 37212 ft 502 kts 67°
2026-04-28 11:54 30.26903 102.07718 37241 ft 501 kts 67°
2026-04-28 11:55 30.29625 102.15145 37225 ft 501 kts 67°
2026-04-28 11:55 30.32331 102.22568 37253 ft 501 kts 67°
2026-04-28 11:56 30.35036 102.29992 37250 ft 500 kts 68°
2026-04-28 11:56 30.37716 102.37367 37273 ft 500 kts 67°
2026-04-28 11:57 30.40423 102.44801 37266 ft 502 kts 68°
2026-04-28 11:57 30.43136 102.52268 37292 ft 503 kts 68°
2026-04-28 11:58 30.45827 102.59704 37294 ft 504 kts 68°
2026-04-28 11:58 30.48527 102.67205 37299 ft 504 kts 68°
2026-04-28 11:59 30.51222 102.74702 37306 ft 504 kts 68°
2026-04-28 11:59 30.53920 102.82213 37312 ft 506 kts 68°
2026-04-28 12:00 30.56626 102.89768 37320 ft 508 kts 68°
2026-04-28 12:00 30.59314 102.97293 37316 ft 508 kts 68°
2026-04-28 12:01 30.61995 103.04876 37303 ft 507 kts 69°
2026-04-28 12:01 30.64608 103.12474 37305 ft 507 kts 69°
2026-04-28 12:02 30.67153 103.20090 37292 ft 507 kts 74°
2026-04-28 12:02 30.67946 103.24089 37286 ft 504 kts 85°
2026-04-28 12:02 30.68121 103.28125 37287 ft 499 kts 95°
2026-04-28 12:03 30.67639 103.36106 37264 ft 498 kts 99°
2026-04-28 12:03 30.66871 103.44098 37259 ft 498 kts 100°
2026-04-28 12:04 30.66074 103.52086 37239 ft 498 kts 99°
2026-04-28 12:04 30.65303 103.60100 37242 ft 499 kts 99°
2026-04-28 12:05 30.64431 103.68023 37237 ft 496 kts 107°
2026-04-28 12:05 30.62574 103.75686 37234 ft 493 kts 111°
2026-04-28 12:06 30.60482 103.83261 37230 ft 492 kts 112°
2026-04-28 12:06 30.58344 103.90800 37228 ft 491 kts 112°
2026-04-28 12:07 30.56309 103.98344 37234 ft 490 kts 110°
2026-04-28 12:07 30.54496 104.05911 37223 ft 490 kts 109°
2026-04-28 12:08 30.52508 104.13455 37248 ft 485 kts 118°
2026-04-28 12:08 30.50944 104.16883 37240 ft 477 kts 129°
2026-04-28 12:08 30.48918 104.19875 37249 ft 468 kts 140°
2026-04-28 12:09 30.46493 104.22323 37234 ft 458 kts 151°
2026-04-28 12:09 30.43793 104.24224 37254 ft 452 kts 158°
2026-04-28 12:09 30.38238 104.27481 37255 ft 450 kts 160°
2026-04-28 12:10 30.32576 104.30583 37256 ft 450 kts 161°
2026-04-28 12:10 30.26923 104.33704 37261 ft 450 kts 160°
2026-04-28 12:11 30.21282 104.36862 37242 ft 451 kts 160°
2026-04-28 12:11 30.15643 104.40035 37229 ft 451 kts 160°
2026-04-28 12:12 30.10024 104.43191 37243 ft 453 kts 160°
2026-04-28 12:12 30.04357 104.46364 37246 ft 453 kts 160°
2026-04-28 12:13 29.98688 104.49534 37247 ft 453 kts 160°
2026-04-28 12:13 29.93010 104.52705 37241 ft 453 kts 160°
2026-04-28 12:14 29.87380 104.55845 37244 ft 453 kts 160°
2026-04-28 12:14 29.81703 104.59007 37245 ft 454 kts 160°
2026-04-28 12:15 29.76009 104.62174 37245 ft 454 kts 160°
2026-04-28 12:15 29.70324 104.65333 37243 ft 454 kts 160°
2026-04-28 12:16 29.64629 104.68494 37244 ft 454 kts 160°
2026-04-28 12:16 29.58974 104.71627 37244 ft 454 kts 160°
2026-04-28 12:17 29.53283 104.74778 37245 ft 455 kts 161°
2026-04-28 12:17 29.50413 104.76361 35541 ft 471 kts 160°
2026-04-28 12:17 29.47425 104.77991 35596 ft 461 kts 160°
2026-04-28 12:18 29.44539 104.79576 35064 ft 461 kts 159°
2026-04-28 12:18 29.41662 104.81166 34816 ft 458 kts 159°
2026-04-28 12:18 29.38794 104.82758 34959 ft 458 kts 159°
2026-04-28 12:18 29.35965 104.84327 35282 ft 457 kts 159°
2026-04-28 12:19 29.33103 104.85901 35610 ft 455 kts 160°
2026-04-28 12:19 29.30233 104.87408 35899 ft 454 kts 161°
2026-04-28 12:19 29.27347 104.88876 36175 ft 454 kts 162°
2026-04-28 12:19 29.24452 104.90324 36383 ft 454 kts 162°
2026-04-28 12:20 29.21553 104.91768 36615 ft 455 kts 162°
2026-04-28 12:20 29.18645 104.93219 36818 ft 456 kts 163°
2026-04-28 12:20 29.15730 104.94676 36990 ft 458 kts 163°
2026-04-28 12:20 29.12802 104.96145 37203 ft 459 kts 163°
2026-04-28 12:21 29.06998 104.99073 37248 ft 458 kts 163°
2026-04-28 12:21 29.01169 105.02020 37248 ft 458 kts 163°
2026-04-28 12:22 28.95344 105.04959 37243 ft 458 kts 163°
2026-04-28 12:22 28.89497 105.07892 37246 ft 459 kts 164°
2026-04-28 12:23 28.83691 105.10793 37250 ft 459 kts 164°
2026-04-28 12:23 28.77850 105.13724 37250 ft 460 kts 162°
2026-04-28 12:24 28.72117 105.17024 37255 ft 463 kts 159°
2026-04-28 12:24 28.66450 105.20527 37233 ft 464 kts 159°
2026-04-28 12:25 28.60768 105.24027 37253 ft 465 kts 160°
2026-04-28 12:25 28.55103 105.27471 37255 ft 465 kts 160°
2026-04-28 12:26 28.49394 105.30917 37251 ft 465 kts 160°
2026-04-28 12:26 28.43667 105.34364 37257 ft 466 kts 160°
2026-04-28 12:27 28.37933 105.37814 37252 ft 467 kts 160°
2026-04-28 12:27 28.32184 105.41271 37257 ft 468 kts 160°
2026-04-28 12:28 28.26455 105.44708 37261 ft 469 kts 160°
2026-04-28 12:28 28.20688 105.48174 37267 ft 469 kts 160°
2026-04-28 12:29 28.12023 105.53337 37256 ft 469 kts 160°
2026-04-28 12:30 28.06227 105.56567 37256 ft 460 kts 168°
2026-04-28 12:30 28.00130 105.58233 37256 ft 449 kts 179°
2026-04-28 12:31 27.93966 105.59281 37247 ft 447 kts 181°
2026-04-28 12:31 27.87797 105.60203 37249 ft 447 kts 181°
2026-04-28 12:32 27.81633 105.61280 37247 ft 454 kts 174°
2026-04-28 12:32 27.75692 105.63923 37227 ft 469 kts 162°
2026-04-28 12:33 27.69882 105.67364 37239 ft 474 kts 159°
2026-04-28 12:33 27.64044 105.70809 37243 ft 472 kts 161°
2026-04-28 12:34 27.58137 105.74032 37242 ft 471 kts 162°
2026-04-28 12:34 27.52214 105.77199 37219 ft 471 kts 163°
2026-04-28 12:35 27.46325 105.80324 37235 ft 471 kts 162°
2026-04-28 12:35 27.40409 105.83514 37235 ft 471 kts 162°
2026-04-28 12:36 27.34494 105.86711 37225 ft 471 kts 162°
2026-04-28 12:36 27.28582 105.89896 37231 ft 471 kts 162°
2026-04-28 12:37 27.22665 105.93076 37218 ft 471 kts 162°
2026-04-28 12:37 27.16793 105.96230 37219 ft 471 kts 162°
2026-04-28 12:38 27.10873 105.99402 37213 ft 471 kts 162°
2026-04-28 12:38 27.05123 106.03029 37211 ft 483 kts 149°
2026-04-28 12:39 27.02487 106.05739 37217 ft 493 kts 138°
2026-04-28 12:39 27.00302 106.08592 37209 ft 496 kts 135°
2026-04-28 12:40 26.96084 106.14745 37206 ft 499 kts 132°
2026-04-28 12:40 26.91964 106.21010 37202 ft 499 kts 132°
2026-04-28 12:41 26.87818 106.27247 37208 ft 499 kts 133°
2026-04-28 12:41 26.83668 106.33411 37202 ft 499 kts 133°
2026-04-28 12:42 26.79490 106.39581 37196 ft 494 kts 133°
2026-04-28 12:42 26.75360 106.45676 37205 ft 490 kts 133°
2026-04-28 12:43 26.71239 106.51746 37201 ft 489 kts 133°
2026-04-28 12:43 26.67153 106.57754 37201 ft 489 kts 133°
2026-04-28 12:44 26.63030 106.63811 37201 ft 489 kts 133°
2026-04-28 12:44 26.58908 106.69859 37202 ft 489 kts 133°
2026-04-28 12:45 26.54783 106.75905 37200 ft 488 kts 133°
2026-04-28 12:45 26.50381 106.81588 37201 ft 482 kts 140°
2026-04-28 12:46 26.45694 106.86857 37206 ft 481 kts 142°
2026-04-28 12:46 26.40928 106.92073 37168 ft 480 kts 142°
2026-04-28 12:47 26.36155 106.97282 37174 ft 480 kts 142°
2026-04-28 12:47 26.31386 107.02502 37159 ft 480 kts 141°
2026-04-28 12:48 26.26627 107.07718 37150 ft 480 kts 141°
2026-04-28 12:48 26.21911 107.12900 37150 ft 479 kts 141°
2026-04-28 12:49 26.17171 107.18105 37141 ft 479 kts 141°
2026-04-28 12:49 26.12425 107.23309 37128 ft 479 kts 141°
2026-04-28 12:50 26.07679 107.28504 37132 ft 477 kts 141°
2026-04-28 12:50 26.02985 107.33639 37125 ft 476 kts 141°
2026-04-28 12:51 25.98259 107.38801 37105 ft 476 kts 141°
2026-04-28 12:51 25.93537 107.43951 37117 ft 475 kts 140°
2026-04-28 12:52 25.88845 107.49062 37095 ft 475 kts 141°
2026-04-28 12:52 25.84125 107.54193 37090 ft 475 kts 141°
2026-04-28 12:53 25.79405 107.59324 37086 ft 475 kts 141°
2026-04-28 12:53 25.74689 107.64445 37072 ft 474 kts 141°
2026-04-28 12:54 25.70016 107.69529 37079 ft 473 kts 140°
2026-04-28 12:54 25.65335 107.74654 37069 ft 473 kts 140°
2026-04-28 12:55 25.60650 107.79786 37060 ft 473 kts 140°
2026-04-28 12:55 25.55966 107.84910 37060 ft 474 kts 140°
2026-04-28 12:56 25.51272 107.90035 37051 ft 474 kts 141°
2026-04-28 12:56 25.46238 107.94501 37036 ft 461 kts 156°
2026-04-28 12:57 25.40343 107.96888 37038 ft 445 kts 174°
2026-04-28 12:57 25.34239 107.97844 37027 ft 442 kts 178°
2026-04-28 12:58 25.28122 107.98537 37027 ft 442 kts 179°
2026-04-28 12:58 25.22036 107.99219 37014 ft 442 kts 179°
2026-04-28 12:59 25.15925 107.99941 37014 ft 442 kts 178°
2026-04-28 12:59 25.09800 108.00685 36997 ft 442 kts 178°
2026-04-28 13:00 25.03690 108.01432 37001 ft 442 kts 178°
2026-04-28 13:00 24.97570 108.02178 36973 ft 442 kts 178°
2026-04-28 13:01 24.91495 108.02917 36976 ft 442 kts 178°
2026-04-28 13:01 24.85391 108.03657 36958 ft 442 kts 178°
2026-04-28 13:02 24.79279 108.04397 36952 ft 442 kts 178°
2026-04-28 13:02 24.73162 108.05138 36951 ft 441 kts 178°
2026-04-28 13:03 24.67059 108.05876 36953 ft 441 kts 178°
2026-04-28 13:03 24.60997 108.06608 36953 ft 441 kts 178°
2026-04-28 13:04 24.54885 108.07346 36951 ft 442 kts 178°
2026-04-28 13:04 24.48785 108.08087 36945 ft 441 kts 177°
2026-04-28 13:05 24.42688 108.08829 36943 ft 440 kts 177°
2026-04-28 13:05 24.36613 108.09566 36935 ft 439 kts 177°
2026-04-28 13:06 24.30571 108.10301 36935 ft 440 kts 177°
2026-04-28 13:06 24.24487 108.11040 36934 ft 440 kts 177°
2026-04-28 13:07 24.18402 108.11777 36931 ft 440 kts 177°
2026-04-28 13:07 24.12320 108.12514 36923 ft 440 kts 177°
2026-04-28 13:08 24.06227 108.13251 36925 ft 440 kts 177°
2026-04-28 13:08 24.00186 108.13981 36923 ft 440 kts 177°
2026-04-28 13:09 23.94115 108.14999 36924 ft 444 kts 168°
2026-04-28 13:09 23.88467 108.17809 36908 ft 454 kts 148°
2026-04-28 13:09 23.86023 108.20037 36913 ft 459 kts 137°
2026-04-28 13:10 23.83997 108.22744 36911 ft 464 kts 126°
2026-04-28 13:10 23.82464 108.25863 36912 ft 469 kts 115°
2026-04-28 13:10 23.81507 108.29227 36912 ft 473 kts 104°
2026-04-28 13:11 23.80795 108.36405 36915 ft 477 kts 96°
2026-04-28 13:11 23.80444 108.43641 36897 ft 478 kts 94°